COSMOS 2251 DEB, 40228

Orbit data source: Space-Track

COSMOS 2251 DEB, 40228 is space debris in LEO originally from a launch on Wed, 16 Jun 1993 UTC launched from the Plesetsk Missile And Space Complex (PKMTR). The debris from Iridium 33, an American commercial communications satellite, has been tracked extensively since its accidental collision with the defunct Russian satellite Cosmos 2251 in 2009. This event, occurring at high speed in low Earth orbit (LEO), generated thousands of pieces of space debris, significantly increasing the risk of further collisions. The Iridium 33 debris cloud has impacted space traffic management and orbital debris mitigation strategies, making it a subject of ongoing study in space situational awareness.

Loading next visibility...
Identifier
40228, 1993-036BVH
Orbit
LEO
Country
Flag of CISCIS
Related business
Manufacturer
Unknown
Mission
Spacecraft
Bus & Motor
Unknown
Mass
Unknown
Launch date (UTC)
1993-06-16 (32 years ago)
Launch vehicle
Unknown
Launch site
Plesetsk Missile And Space Complex (PKMTR)
Object type
Payload
Rocket body
Debris
Shape & HBR
Unknown
Radar Cross Section
Small (<0.1 m²)

Expand to show TLE details & history
Last TLE update: 18 hours ago

TLE from 18 hours ago
0 COSMOS 2251 DEB
1 40228U 93036BVH 25259.21829992  .00000907  00000-0  29119-3 0  9993
2 40228  74.0534  62.2824 0023282 150.1287  29.7503 14.40706578576608
Epoch: 2025-09-16T05:14Z
TLE epoch observation values (Epoch: 2025-09-16T05:14:21.113Z)
Latitude
-0.1232°
Longitude
168.31769°
Altitude
744.385 km
Speed
7.49 km/s
True Right ascension
16h 09m 16s
True Declination
0° 07' 21"
Sunlit
Object was in daylight at epoch
Visualization orbit readout
Latitude
Unknown
Longitude
Unknown
Altitude
Unknown
Speed
Unknown
Apparent Right ascension
Unknown
Apparent Declination
Unknown
Sunlit
N/A
Visualization observer readout
Local Sidereal Time
15:55:11
Azimuth
Unknown
Elevation
Unknown
Doppler factor
Unknown
Orbital elements
Apogee altitude
770.387 km
Perigee altitude
737.178 km
Semi-major axis
7,131.919 km
Eccentricity
0.00233
Inclination
74.0534°
RAAN
62.2824°
Arg. of periapsis
150.1287°
True anomaly
29.88302°
Mean anomaly
29.7503°
Eccentric anomaly
29.81663°
Mean motion
3.60357 °/min
Orbital period
99.9 mins
BSTAR
0.00029119
Loading maneuver chart data...
Computing Atmospheric mass density...

Documentation

Showing up to 5 results
|